SCP
1 1 1 1 1 1 1 1 1 0 0 0 0 0 0 0 0 1 1 1 1 1 1 1 1 1 1 1 1 1 1 1 1 1 1 1 1 2 2 2 2 2 2
1 1 1 1 1 1 1 1 1 1 0 0 0 0 0 0 1 1 1 1 1 1 1 1 1 1 2 1 1 1 1 1 1 1 1 1 2 2 2 2 2 2 1
2 1 2 2 2 2 1 1 1 1 1 1 1 1 1 1 1 1 1 1 1 1 1 1 1 2 2 2 1 1 1 1 1 1 2 2 2 2 2 2 1 1 1
2 2 2 2 3 3 2 2 2 2 2 1 1 1 1 2 1 1 1 1 1 1 1 1 1 2 2 1 1 1 1 1 1 1 1 1 2 2 2 1 1 1 1
2 2 2 3 3 4 3 3 3 3 2 2 2 2 2 2 1 1 1 1 1 1 1 1 1 1 1 1 1 1 1 1 1 1 1 1 1 1 1 1 1 1 1
2 3 3 3 4 4 5 5 5 4 3 3 2 2 2 2 1 1 1 1 1 1 1 1 1 1 1 1 1 0 1 1 1 1 1 0 0 0 1 1 1 1 1
3 3 3 4 4 5 6 7 6 5 4 4 3 3 2 2 1 1 1 1 1 1 1 1 1 1 1 1 1 1 1 1 1 0 0 0 0 0 0 0 0 0 0
3 4 4 4 4 5 6 7 7 5 4 3 3 3 2 2 1 1 1 1 1 1 1 1 1 1 1 1 1 1 1 0 0 0 0 0 0 0 0 0 0 0 0
4 4 5 5 5 5 4 5 5 4 3 2 1 1 1 1 1 1 0 0 0 0 0 0 0 0 0 0 0 0 0 0 0 0 0 0 0 0 0 0 0 0 0
4 4 4 5 5 4 3 3 2 2 1 1 0 0 1 1 1 1 0 0 0 0 0 0 0 0 0 0 0 0 0 0 0 0 0 0 0 0 0 0 0 0 0
2 2 2 3 3 3 2 1 1 1 1 0 0 0 0 0 0 0 0 0 0 0 0 0 0 0 0 0 0 0 0 0 0 0 0 0 0 0 0 0 0 0 0
1 1 1 1 1 1 1 0 0 0 0 0 0 0 0 0 0 0 0 0 0 0 0 0 0 0 0 0 0 0 0 0 0 0 0 0 0 0 0 0 0 0 0
0 0 0 0 0 0 0 0 0 0 0 0 0 0 0 0 0 0 0 0 0 0 0 0 0 0 0 0 0 0 0 0 0 0 0 0 0 0 0 0 0 0 0
0 0 0 0 0 0 0 0 0 0 0 0 0 0 0 0 0 0 0 0 0 0 0 0 0 0 0 0 0 0 0 0 0 0 0 0 0 0 0 0 0 0 0
0 0 0 0 0 0 0 0 0 0 0 0 0 0 0 0 0 0 0 0 0 0 0 0 0 0 0 0 0 0 0 0 0 0 0 0 0 0 0 0 0 0 0
0 0 0 0 0 0 0 0 0 0 0 0 0 0 0 0 0 0 0 0 0 0 0 0 0 0 0 0 0 0 0 0 0 0 0 0 0 0 0 0 0 0 0
0 0 0 0 0 0 0 0 0 0 0 0 0 0 0 0 0 0 0 0 0 0 0 0 0 0 0 0 0 0 0 0 0 0 0 0 0 0 0 0 0 0 0
0 0 0 0 0 0 0 0 0 0 0 0 0 0 0 0 0 0 0 0 0 0 0 0 0 0 0 0 0 0 0 0 0 0 0 0 0 0 0 0 0 0 0
0 0 0 0 0 0 0 0 0 0 0 0 0 0 0 0 0 0 0 0 0 0 0 0 0 0 0 0 0 0 0 0 0 0 0 0 0 0 0 0 0 0 0
0 0 0 0 0 0 0 0 0 0 0 0 0 0 0 0 0 0 0 0 0 0 0 0 0 0 0 0 0 0 0 0 0 0 0 0 0 0 0 0 0 0 0
0 0 0 0 0 0 0 0 0 0 0 0 0 0 0 0 0 0 0 0 0 0 0 0 0 0 0 0 0 0 0 0 0 0 0 0 0 0 0 0 0 0 0
0 0 0 0 0 0 0 0 0 0 0 0 0 0 0 0 0 0 0 0 0 0 0 0 0 0 0 0 0 0 0 0 0 0 0 0 0 0 0 0 0 0 0
0 0 0 0 0 0 0 0 0 0 0 0 0 0 0 0 0 0 0 0 0 0 0 0 0 0 0 0 0 0 0 0 0 0 0 0 0 0 0 0 0 0 0
0 0 0 0 0 0 0 0 0 0 0 0 0 0 0 0 0 0 0 0 0 0 0 0 0 0 0 0 0 0 0 0 0 0 0 0 0 0 0 0 0 0 0
0 0 0 0 0 0 0 0 0 0 0 0 0 0 0 0 0 0 0 0 0 0 0 0 0 0 0 0 0 0 0 0 0 0 0 0 0 0 0 0 0 0 0
0 0 0 0 0 0 0 0 0 0 0 0 0 0 0 0 0 0 0 0 0 0 0 0 0 0 0 0 0 0 0 0 0 0 0 0 0 0 0 0 0 0 0
Wind_Speed
6 5 4 3 5 3 4 5 4 3 5 6 5 5 5 5 5 5 6 10 9 9 10 11 10 10 9 8 8 8 7 7 7 7 6 6 6 5 5 4 4 3 2
5 5 5 5 5 4 3 3 3 4 4 3 4 4 5 5 4 5 4 9 9 8 9 10 9 9 9 8 8 7 7 7 7 6 6 6 6 5 5 4 4 3 2
6 5 5 5 4 4 4 4 4 4 3 3 3 3 3 3 3 3 4 4 7 8 7 7 7 7 7 7 7 7 6 6 6 6 6 6 5 5 5 4 4 3 2
6 6 5 5 4 3 3 3 3 3 2 2 2 2 1 1 1 2 2 2 2 4 7 7 7 7 6 6 6 6 6 6 6 6 5 5 5 5 5 5 4 3 2
8 6 5 3 4 3 3 3 2 3 2 1 2 1 1 1 2 2 1 1 2 2 3 7 7 6 6 5 5 5 6 6 6 6 6 6 6 6 6 6 5 5 4
7 6 4 4 4 3 3 3 2 1 1 2 2 1 1 1 1 1 1 2 2 2 3 3 4 5 5 4 2 4 6 7 7 8 8 9 9 8 8 8 8 7 6
5 5 4 4 4 4 3 4 3 3 1 1 2 3 2 2 2 1 0 1 2 2 2 2 2 1 3 4 2 1 3 5 7 8 9 10 10 10 11 11 11 10 10
2 3 4 4 4 3 3 3 3 2 1 2 3 3 3 3 2 2 1 1 1 2 2 2 2 1 1 2 4 3 3 3 4 6 7 7 8 9 11 13 14 13 13
1 1 2 2 3 3 3 3 3 4 3 2 1 2 3 3 3 3 2 2 1 1 1 2 2 2 1 0 1 5 6 6 5 6 7 8 9 9 11 12 14 15 15
3 2 2 2 2 2 2 3 2 1 2 3 1 1 2 2 1 2 3 2 2 1 1 1 2 2 1 1 3 5 7 7 7 8 8 9 10 11 12 13 15 16 17
6 6 5 5 5 4 5 5 4 2 1 1 2 1 1 1 1 1 1 2 2 1 1 1 1 1 1 0 1 6 7 8 8 9 10 11 12 13 14 15 16 17 19
5 8 8 7 7 7 7 6 6 7 5 5 3 2 1 1 0 1 1 2 2 2 1 1 1 1 1 2 2 6 7 8 9 10 12 13 14 16 17 18 19 20 21
6 7 8 8 8 8 8 8 8 8 8 7 6 5 5 4 3 3 2 2 2 2 3 4 3 3 3 3 3 5 9 9 10 12 13 15 16 17 18 19 20 21 22
7 8 9 10 10 9 9 8 8 8 8 7 8 6 4 5 4 4 3 3 4 4 5 5 3 4 4 5 3 5 10 8 10 13 15 16 17 18 18 19 20 20 21
9 11 10 11 10 10 10 9 8 8 7 7 6 6 4 4 4 4 4 4 5 7 6 3 3 3 4 6 6 9 11 10 12 15 17 17 18 18 19 20 20 21 22
11 11 11 11 10 10 9 8 8 8 8 7 5 5 4 4 4 3 4 4 5 7 8 6 5 6 7 9 9 11 12 12 16 18 17 16 17 18 19 20 21 22 22
11 11 11 11 10 10 9 9 8 8 7 6 5 5 5 5 5 5 4 4 5 6 8 8 7 7 9 11 10 11 11 12 10 11 12 14 16 18 19 20 20 21 21
11 11 10 10 10 10 9 9 8 7 7 6 6 5 5 4 5 5 5 6 5 6 8 10 9 9 10 11 11 11 11 10 11 9 10 14 17 18 17 18 18 18 18
10 10 10 10 9 8 8 7 7 6 6 6 6 6 6 6 6 6 7 7 6 6 7 9 10 9 9 9 11 11 12 9 11 10 10 14 15 15 15 16 17 17 16
10 9 9 8 8 7 7 7 6 6 6 6 6 6 6 7 7 8 7 7 7 8 8 9 9 9 9 10 9 9 10 9 10 11 11 10 11 13 16 18 18 17 15
9 8 7 7 7 6 8 8 6 6 6 6 6 6 6 5 6 7 8 9 9 8 9 9 9 9 9 9 9 9 10 10 11 10 9 9 9 9 10 10 11 11 10
7 7 6 6 6 7 7 7 8 6 6 6 7 7 6 4 4 7 8 9 11 11 11 11 10 11 12 11 10 9 9 10 10 8 10 11 10 9 9 8 4 4 8
6 6 5 5 6 7 5 5 7 8 7 7 7 7 7 6 7 8 7 10 12 13 14 11 12 13 12 11 11 11 10 11 11 11 10 10 9 9 9 7 3 6 9
5 5 5 5 5 7 5 5 9 9 7 7 7 7 8 8 7 9 12 12 11 9 8 9 9 11 11 10 10 10 11 11 11 8 7 9 9 9 10 8 2 5 9
4 4 5 5 5 5 7 7 11 9 6 7 7 7 7 8 7 8 11 12 12 10 6 8 10 13 14 14 11 9 9 8 9 9 6 7 8 10 10 8 5 5 8
3 4 4 5 5 5 6 6 10 8 7 7 7 6 1 4 8 9 10 10 11 10 10 9 8 9 10 10 12 10 8 8 8 7 5 5 6 7 6 7 9 8 7
Wind_Direction
200 192 201 213 230 215 202 226 235 217 235 228 236 236 242 236 237 227 152 161 179 189 188 184 184 186 188 190 188 186 183 181 178 174 170 165 161 155 150 146 140 134 127
199 201 202 206 227 230 239 239 236 232 240 247 241 238 249 238 225 230 201 161 174 183 187 188 186 185 190 189 186 184 181 178 176 172 167 162 159 156 152 150 146 139 124
199 211 217 208 219 223 225 241 233 240 234 228 233 235 244 251 217 224 228 192 173 171 173 174 174 177 181 179 177 176 172 171 168 167 168 168 166 165 165 163 159 150 136
207 216 225 216 208 217 224 231 245 239 231 235 227 220 211 199 198 205 223 212 183 166 157 152 154 159 165 167 169 173 174 175 176 177 177 176 175 173 175 173 172 170 166
210 219 228 215 208 210 212 226 218 251 236 226 208 191 210 167 150 161 163 155 133 149 155 139 138 142 156 166 178 189 193 196 199 201 204 204 205 203 202 200 200 202 207
211 217 219 206 211 207 194 200 200 223 231 223 222 147 100 97 123 103 172 146 145 151 150 144 154 134 126 135 174 220 228 228 224 222 223 227 227 224 220 222 221 222 225
209 209 218 197 205 204 198 188 192 189 192 197 205 196 167 131 103 112 101 118 123 119 132 140 166 159 155 148 146 263 270 260 253 246 244 245 243 238 235 235 235 235 238
213 217 217 201 193 187 184 191 185 192 173 218 245 233 217 191 159 77 100 126 123 140 149 138 147 150 213 208 108 72 27 341 304 284 273 270 266 257 251 247 244 245 247
65 238 215 191 169 176 182 184 184 187 177 166 306 274 249 242 163 141 96 89 98 116 127 120 124 111 123 92 140 87 48 20 348 320 305 299 291 281 273 265 260 258 258
68 71 102 111 117 128 139 145 138 169 178 171 147 9 3 356 269 175 154 118 101 107 104 117 120 109 109 141 90 71 42 18 359 341 326 315 308 299 289 281 275 270 269
67 70 72 80 88 88 88 86 90 83 89 139 143 143 115 68 339 263 208 180 172 155 138 160 126 125 115 237 259 57 24 358 345 333 323 313 305 298 293 289 285 281 277
77 75 75 72 72 75 75 75 75 73 63 62 59 54 53 50 344 290 262 237 230 197 193 250 234 224 241 271 312 33 344 323 319 316 312 307 302 297 292 288 285 282 281
81 75 80 79 77 75 75 76 76 72 69 69 63 55 46 38 16 349 320 298 272 240 215 230 231 250 265 284 299 19 306 300 300 302 302 300 298 295 293 290 287 285 285
86 83 79 79 76 76 78 75 76 74 69 67 64 55 47 39 22 8 348 322 292 264 232 231 230 250 277 293 347 317 292 285 289 294 295 293 292 290 289 287 287 286 285
84 79 77 75 72 70 69 69 69 67 64 58 58 53 40 37 20 9 349 331 317 305 295 270 270 279 289 302 316 298 297 296 293 288 286 286 286 286 286 285 284 283 283
77 77 75 73 69 67 66 66 69 62 62 55 46 42 23 15 6 347 338 329 320 309 304 313 311 314 325 309 297 295 290 282 265 262 266 274 280 283 283 283 282 282 282
79 78 76 75 72 68 64 63 61 55 50 42 28 25 17 359 343 332 326 317 312 310 304 305 308 310 302 296 301 299 295 290 284 251 248 264 274 278 280 280 281 281 281
78 77 76 74 71 67 60 56 54 48 41 31 18 5 355 346 338 320 326 318 315 314 299 303 305 301 301 301 298 299 296 295 297 287 248 256 266 271 273 275 277 278 279
80 78 77 74 70 68 64 57 53 45 34 24 11 358 348 341 330 334 321 315 313 306 300 296 298 303 300 302 305 298 299 301 298 300 272 253 258 260 262 264 266 268 268
81 79 78 78 74 67 60 52 46 38 25 17 8 353 343 340 335 329 312 308 307 303 296 291 294 299 302 307 306 305 308 310 309 308 303 295 280 259 256 255 256 259 262
87 87 85 81 72 64 46 28 22 25 12 3 357 345 343 338 331 319 317 321 314 307 302 299 300 303 307 313 312 314 312 311 306 304 306 305 302 297 291 273 257 258 265
85 81 72 67 61 61 53 15 347 356 353 350 347 339 325 300 326 281 272 284 293 295 304 305 302 304 308 311 316 313 310 309 307 313 313 309 307 305 305 303 310 289 281
79 68 60 54 56 74 54 7 340 323 333 342 336 331 330 344 315 324 309 279 268 254 255 277 291 297 305 312 314 311 309 306 305 309 307 306 312 313 310 310 296 284 284
64 54 42 36 37 67 48 3 331 305 323 329 328 326 324 325 350 341 318 309 306 301 288 276 288 296 301 308 307 299 296 294 294 301 314 312 321 321 317 317 293 270 282
45 34 35 22 18 58 49 8 335 318 329 331 328 327 325 325 27 340 309 306 311 315 296 258 263 272 277 276 276 287 294 300 311 320 336 323 323 323 317 319 329 300 289
27 14 28 18 11 25 57 9 338 322 338 333 329 325 331 343 339 318 307 307 312 320 321 312 285 265 262 256 238 252 285 303 313 314 336 326 318 326 315 320 332 337 334